Flag for Russia Weather past 2 weeks in Kaliningrad, Russia

Now
66 °F

Partly sunny.


Feels Like: 66 °F
Forecast: 51 / 70 °F
Wind: 8 mph from Northwest

Location: Kaliningrad/Khrabrovo Airport

Current Time: Aug 29, 2014 at 4:10:36 PM

Latest Report: Aug 29, 2014 at 3:30 PM


Visibility: N/A

Pressure: 29.98 "Hg

Humidity: 43%

Dew point: 43 °F

Location of KaliningradLocation

Historic Weather in Kaliningrad — Graph

°F

Kaliningrad temperature yesterday

Maximum temperature yesterday: 68 °F (at 1:00 PM)
Minimum temperature yesterday: 50 °F (at 12:00 AM)
Average temperature yesterday: 59 °F

Past Weeks' High & Low Weather Summary

 TemperatureHumidityPressure
High72 °F (Aug 15, 1:30 PM)94% (Aug 16, 12:00 AM)29.98 "Hg (Aug 16, 12:00 AM)
Low48 °F (Aug 22, 3:00 AM)35% (Aug 22, 3:30 PM)29.59 "Hg (Aug 14, 2:00 PM)
Average59 °F72%29.80 "Hg
* Reported Aug 14 2:00 PM — Aug 29 2:30 PM, Kaliningrad, Weather by CustomWeather, © 2014

Note: Actual official high and low records may vary slightly from our data, if they occured in-between our weather recording intervals... More about our weather records

Advertising

Kaliningrad weather history for previous 24 hours

 ConditionsComfort  
Time TempWeatherWind HumidityBarometerVisibility
2:30 PM
Aug 29
66 °FPartly sunny.6 mph60%29.98 "HgN/A
2:00 PM66 °FPartly sunny.8 mph56%29.98 "HgN/A
1:30 PM68 °FPartly sunny.6 mph53%29.98 "HgN/A
1:00 PM64 °FPartly sunny.3 mph56%29.98 "HgN/A
12:30 PM68 °FScattered clouds.3 mph46%29.98 "HgN/A
12:00 PM68 °FPartly sunny.6 mph40%29.98 "HgN/A
11:30 AM66 °FPartly sunny.3 mph46%29.98 "HgN/A
11:00 AM66 °FScattered clouds.3 mph52%29.98 "HgN/A
10:30 AM64 °FScattered clouds.6 mph60%29.98 "HgN/A
10:00 AM64 °FScattered clouds.3 mph68%29.98 "HgN/A
9:30 AM63 °FPassing clouds.6 mph83%29.98 "HgN/A
9:00 AM61 °FPassing clouds.3 mph88%29.98 "HgN/A
8:30 AM57 °FClear.6 mph94%29.98 "Hg4 mi
8:00 AM55 °FFog.6 mph88%29.98 "Hg3 mi
7:30 AM52 °FFog.6 mph94%29.98 "Hg2 mi
7:00 AM52 °FFog.3 mph88%29.98 "Hg1 mi
6:30 AM52 °FFog.6 mph94%29.98 "Hg0 mi
6:00 AM52 °FFog.6 mph94%29.98 "Hg0 mi
5:30 AM52 °FFog.3 mph88%29.98 "Hg0 mi
5:00 AM50 °FFog.6 mph94%29.98 "Hg1 mi
4:00 AM52 °FFog.6 mph88%29.98 "Hg3 mi
3:30 AM52 °FClear.6 mph88%29.98 "Hg4 mi
3:00 AM52 °FFog.3 mph88%29.98 "Hg3 mi
2:30 AM50 °FClear.6 mph88%29.98 "Hg4 mi
2:00 AM50 °FClear.6 mph88%29.98 "Hg10 mi
1:30 AM48 °FClear.6 mph94%29.98 "Hg10 mi
1:00 AM50 °FClear.6 mph88%29.98 "Hg10 mi
12:30 AM50 °FClear.6 mph88%29.98 "Hg10 mi
12:00 AM52 °FClear.6 mph88%29.98 "Hg10 mi
11:30 PM
Aug 28
50 °FClear.6 mph88%29.95 "Hg10 mi
11:00 PM52 °FClear.6 mph88%29.95 "Hg10 mi
10:30 PM52 °FSunny.6 mph88%29.95 "Hg10 mi
10:00 PM54 °FPassing clouds.3 mph88%29.95 "HgN/A
9:30 PM55 °FPassing clouds.3 mph82%29.95 "HgN/A
9:00 PM57 °FPassing clouds.3 mph82%29.95 "HgN/A
8:30 PM59 °FScattered clouds.3 mph77%29.95 "HgN/A
8:00 PM61 °FPassing clouds.6 mph72%29.95 "HgN/A
7:30 PM63 °FScattered clouds.8 mph68%29.95 "HgN/A
7:00 PM63 °FScattered clouds.10 mph68%29.95 "HgN/A
6:30 PM63 °FScattered clouds.10 mph73%29.95 "HgN/A
6:00 PM63 °FScattered clouds.10 mph68%29.92 "HgN/A
5:30 PM64 °FScattered clouds.13 mph60%29.92 "HgN/A
5:00 PM64 °FScattered clouds.13 mph64%29.92 "HgN/A
4:30 PM64 °FScattered clouds.10 mph64%29.92 "HgN/A
4:00 PM64 °FBroken clouds.13 mph64%29.92 "HgN/A
Weather by CustomWeather, © 2014

See weather overviewHow to use our weather pages